Regional Weather Roundup
Issued by NWS Grand Forks, ND

Home | Current Version | Previous Version | Text Only | Print | Product List | Glossary Off
Versions: 1 2 3 4 5 6 7 8 9 10 11 12 13 14 15 16 17 18 19 20 21 22 23 24 25 26 27 28 29 30 31 32 33 34 35 36 37 38 39 40 41 42 43 44 45 46 47 48 49 50

000
ASUS43 KFGF 160131
RWRFGF
PRAIRIE TO PINES  WEATHER ROUNDUP
NATIONAL WEATHER SERVICE EASTERN NORTH DAKOTA/GRAND FORKS ND
800 PM CDT TUE APR 15 2014

 **SATELLITE DATA USED TO AUGMENT SKY COVER AT AUTOMATED STATIONS**
 *****  WEATHER ACROSS EASTERN NORTH DAKOTA  *****

CITY           SKY/WX    TMP DP  RH WIND       PRES   REMARKS
GRAND FORKS    CLOUDY    31  12  45 SE9       29.96S WCI  23
GRAND FRKS AFB CLOUDY    30  12  48 E6        30.00S WCI  24
GRAND FRKS NWS   N/A     32 N/A N/A E9          N/A  WCI  24
DEVILS LAKE    CLOUDY    28  12  50 SE15      29.92R WCI  17
FARGO          CLOUDY    33  10  38 SE12      29.98S WCI  24
WAHPETON ARPT  CLOUDY    32   9  37 E10       29.95F WCI  24
$$

 ***** WEATHER ACROSS CENTRAL AND WESTERN NORTH DAKOTA  *****

CITY           SKY/WX    TMP DP  RH WIND       PRES   REMARKS
BISMARCK       PTCLDY    39  18  42 E23G32    29.72R
MINOT          FLURRIES  31  20  63 E21G30    29.78R WCI  18
JAMESTOWN      CLOUDY    28  23  81 E21       29.85F WCI  15
MINOT AFB      CLOUDY    31  21  64 E25       29.78R WCI  18
GARRISON         N/A     36  19  50 E21G28    29.72R
WILLISTON      CLOUDY    42  22  44 E26       29.64R
DICKINSON      CLOUDY    47  23  38 E14       29.58R
HETTINGER      CLOUDY    52  24  33 E14       29.57R
$$

 *****  OTHER AIRPORT OBSERVATIONS IN OUR AREA  *****

CITY           SKY/WX    TMP DP  RH WIND       PRES   REMARKS
WALHALLA         N/A     27  12  54 E9        30.03R WCI  17
GRAFTON AIRPOR FAIR      28  14  54 E9        30.02R WCI  20
VALLEY CITY AR NOT AVBL
CANDO          CLOUDY    28  16  59 E17G26    29.92S WCI  16
CAVALIER APRT  FAIR      27  14  59 SE7       30.03R WCI  19
GWINNER        CLOUDY    32  19  59 E18G25    29.89F WCI  20
ROLLA          MOCLDY    27  16  63 SE18G24   29.91R WCI  13
 ***** THE ABOVE OBSERVATIONS ARE NON NWS ARE NOT QUALITY
       CONTROLLED AND MAY MIS-REPORT RAIN FOR SNOW...
$$

  *****  WEATHER ACROSS NORTHERN MINNESOTA  *****

CITY           SKY/WX    TMP DP  RH WIND       PRES   REMARKS
FLAG ISLAND    CLEAR     21   9  58 SW3       30.06R
WARROAD        CLEAR     19   9  63 E6        30.06S WCI  11
ROSEAU         CLEAR     25  12  58 E9        30.05R WCI  15
HALLOCK        CLOUDY    28  12  50 E10       30.03S WCI  19
THF RVR FALLS  PTCLDY    28  10  47 NE7       30.02S WCI  21
BAUDETTE       CLEAR     23   2  40 N3        30.05S
WASKISH        PTCLDY    25  12  58 CALM      30.04R
CROOKSTON      CLOUDY    30  10  43 E5        30.02R
$$
  *****  WEATHER ACROSS CENTRAL AND WEST MINNESOTA  *****

CITY           SKY/WX    TMP DP  RH WIND       PRES   REMARKS
FOSSTON        MOCLDY    27  10  50 NE7       30.00R WCI  19
BEMIDJI        MOCLDY    27   1  32 E5        30.00S WCI  22
PARK RAPIDS    CLOUDY    30   6  36 S6        29.98S WCI  24
ELBOW LAKE     CLOUDY    32  11  40 E12       29.96S WCI  23
WADENA         CLOUDY    30  10  43 SE6       30.00R WCI  24
DETROIT LAKES  CLOUDY    32  10  40 SE6       29.99S
MOORHEAD       CLOUDY    34   9  35 SE5       30.00S
FERGUS FALLS   CLOUDY    32   3  29 SE13      29.96S WCI  22
MORRIS MN      CLOUDY    34   9  35 E15       29.94S WCI  24
STAPLES        CLOUDY    30   7  37 SE5       30.01R
$$
  *****  WEATHER ELSEWHERE ACROSS MINNESOTA  *****

CITY           SKY/WX    TMP DP  RH WIND       PRES   REMARKS
DULUTH         PTCLDY    28   3  34 S5        30.03R WCI  23
INTRNTL FALLS  CLEAR     26   3  37 CALM      30.04R
ELY            CLEAR     25   0  33 CALM      30.03R
CLOQUET        PTCLDY    28  -4  24 CALM      30.04R
WHEATON        CLOUDY    36  18  48 E14       29.95S
BRAINERD       MOCLDY    33   4  29 SE6       30.03R
HIBBING        CLEAR     29  -3  25 CALM      30.02R
ALEXANDRIA     CLOUDY    32   4  30 SE9       29.99R WCI  24
SAINT CLOUD    CLOUDY    34   6  31 S3        30.03R
MINNEAPOLIS    CLOUDY    35   4  27 SE7       30.05S
$$

  *****  WEATHER ACROSS SOUTH DAKOTA  *****

CITY           SKY/WX    TMP DP  RH WIND       PRES   REMARKS
SIOUX FALLS    MOCLDY    45  22  40 SE18G28   29.81F
BROOKINGS      NOT AVBL
WATERTOWN      CLOUDY    39  19  44 SE14      29.80F
HURON          MOCLDY    48  25  40 SE15G24   29.69F
SISSETON         N/A     34  14  43 SE13      29.89F WCI  25
ABERDEEN       MOCLDY    42  20  41 E16       29.76F
MITCHELL       MOCLDY    51  30  44 SE20G31   29.70F
PIERRE         CLOUDY    54  27  35 SE16      29.55F
MOBRIDGE       CLOUDY    46  22  38 E25       29.60S
RAPID CITY     CLOUDY    58  26  29 N16       29.53S
$$

  *****  SOME WEATHER IN NEARBY STATES *****

CITY           SKY/WX    TMP DP  RH WIND       PRES   REMARKS
GLASGOW MT     CLOUDY    50  20  30 NE20G26   29.56R
GREAT FALLS MT LGT RAIN  40  34  79 W10       29.77R
CHEYENNE WY    CLOUDY    52  17  25 W16       29.72F
SCOTTSBLUFF NE CLOUDY    60  26  27 SW12      29.62F
OMAHA NE       CLOUDY    50  28  42 SE20      29.88F
DES MOINES IA  PTCLDY    44  22  41 S9        30.03F
DAVENPORT IA   CLEAR     36  17  46 W3        30.13S
CHICAGO IL     MOCLDY    35  16  45 SW5       30.16R
EAU CLAIRE WI  CLEAR     32   5  32 SW5       30.07S
LA CROSSE WI   PTCLDY    34  14  43 SW9       30.10R
$$

  *****  SOME NATIONAL WEATHER *****

CITY           SKY/WX    TMP DP  RH WIND       PRES   REMARKS
LA GUARDIA NY  RAIN      41  36  81 NW24G35   29.80R
RALEIGH NC     CLOUDY    43  36  75 N6        29.90R
ATLANTA GA     CLEAR     43  26  51 N16G26    29.99F
NEW ORLEANS LA MOCLDY    56  29  35 N14       30.14R
OKLAHOMA CITY  PTCLDY    56  16  20 S10       30.04S
ALBUQUERQUE NM MOCLDY    65  12  12 SW16G23   29.92S
SALT LAKE CITY CLOUDY    62  25  24 N22G33    29.80R
LOS ANGELES CA MOSUNNY   57  52  82 W12       29.85S
BOISE ID       MOSUNNY   57  22  25 NW16      29.95S
SEATTLE WA     CLOUDY    55  30  38 W13       30.13S
$$

*** WEATHER ACROSS MANITOBA...SASKATCHEWAN AND ONTARIO ***
                ***ONTARIO***

CITY           SKY/WX    TMP DP  RH WIND       PRES   REMARKS
GERALDTON      PTCLDY    16  -2  45 W3        30.03R
THUNDER BAY    CLEAR     27   0  31 NW7       30.06R WCI  19
SIOUX LOOKOUT  PTCLDY    18   0  45 W2        30.04R
TORONTO        PTCLDY    25   9  50 NW21G28   30.08R WCI  10
BIG TROUT LK   PTCLDY    10   0  61 N5        30.04R WCI   2
PICKLE LAKE    PTCLDY    16   0  48 NW5       30.00R WCI   9
DRYDEN         CLEAR     21   0  39 W5        30.03R WCI  15
KENORA         MOCLDY    21   1  42 SW6       30.05R WCI  14
$$
                *** MANITOBA***

CITY           SKY/WX    TMP DP  RH WIND       PRES   REMARKS
BRANDON        CLOUDY    25  16  68 E17G24    29.98R WCI  11
DAUPHIN        PTCLDY    25  10  54 SE16      30.04R WCI  12
ISLAND LAKE    CLEAR     19   0  42 N8        30.11R WCI   9
PILOT MOUND      N/A     27  16  63 SE16        N/A  WCI  14
THE PAS        PTCLDY    25  -4  28 E5        30.12R WCI  19
THOMPSON       CLEAR     16   5  62 N10       30.18R WCI   3
WINNIPEG       PTCLDY    23   5  46 E7        30.07S WCI  15
LYNN LAKE      CLEAR     16   0  48 NE9       30.19R WCI   4
CHURCHILL      CRYSTALS   3   0  85 NW16G24   30.25R WCI -16
GILLAM         PTCLDY    10   0  61 N9        30.19R WCI  -2
$$
                ***SASKATCHEWAN***

CITY           SKY/WX    TMP DP  RH WIND       PRES   REMARKS
ESTEVAN        CLOUDY    32  19  59 E23G30    29.75S WCI  19
KINDERSLEY     PTSUNNY   32  23  69 NE17G23   29.83R WCI  21
LLOYDMINSTER   SNOWSHWR  27  23  86 E15       29.92R WCI  15
PRINCE ALBERT  CLOUDY    28  12  50 E13       29.99R WCI  18
REGINA         LGT SNOW  28  25  86 E17G29    29.81R WCI  16
YORKTON        CLOUDY    25  16  68 E17       29.95R WCI  11
N. BATTLEFORD  FLURRIES  28  23  80 E15G22    29.95R WCI  17
LA RONGE       CLEAR     27   0  31 NE10      30.08R WCI  17
SASKATOON      FLURRIES  28  25  86 E16G24    29.93R WCI  17
SWIFT CURRENT  CLEAR     39  23  52 NE22G29   29.69R
$$
NOTE: THESE ARE AUTOMATED STATIONS WITH LIMITED QUALITY CONTROL
      "FAIR" INDICATES FEW OR NO CLOUDS BELOW 12,000 FEET WITH NO
      SIGNIFICANT WEATHER AND/OR OBSTRUCTIONS TO VISIBILITY.
      SKY/WX - SKY CONDITION AND SIGNIFICANT WEATHER.
      TMP - AIR TEMPERATURE.    DP   - DEWPOINT TEMPERATURE.
      RH  - RELATIVE HUMIDITY.  PRES - PRESSURE.
      HX  - HEAT INDEX.         WCI  - WIND CHILL INDEX.
$



USA.gov is the U.S. government's official web portal to all federal, state and local government web resources and services.